Regional Weather Roundup
Issued by NWS Newport/Morehead, NC

Current Version | Previous Version | Text Only | Print | Product List | Glossary On
Versions: 1 2 3 4 5 6 7 8 9 10 11 12 13 14 15 16 17 18 19 20 21 22 23 24 25 26 27 28 29 30 31 32 33 34 35 36 37 38 39 40 41 42 43 44 45 46 47 48 49 50
583
ASUS42 KMHX 221925
RWRMHX
WEATHER ROUNDUP FOR EASTERN NORTH CAROLINA
NATIONAL WEATHER SERVICE NEWPORT/MOREHEAD CITY NC
200 PM EST WED FEB 22 2017

NOTE: "FAIR" INDICATES FEW OR NO CLOUDS BELOW 12,000 FEET
WITH NO SIGNIFICANT WEATHER AND/OR OBSTRUCTIONS TO VISIBILITY

NCZ015>017-031-032-045>047-102-103-222000-
NORTH COAST

CITY           SKY/WX    TMP DP  RH WIND       PRES   REMARKS
EDENTON        CLOUDY    71  49  45 S5        29.97F
ELIZABETH CITY PTSUNNY   67  51  56 E8        29.97F
KITTY HAWK     NOT AVBL
MANTEO         MOSUNNY   68  50  53 S13       29.98S

$$

NCZ045>047-081-094-103-104-222000-
CENTRAL COAST

CITY           SKY/WX    TMP DP  RH WIND       PRES   REMARKS
FRISCO         MOSUNNY   73  53  49 S8        29.98F

$$

NCZ095-097-098-100-101-222000-
SOUTHERN COAST

CITY           SKY/WX    TMP DP  RH WIND       PRES   REMARKS
BEAUFORT       MOSUNNY   70  55  59 S6        29.97F
CEDAR ISLAND   NOT AVBL
JACKSONVILLE   MOSUNNY   71  56  58 S14G23    29.95F
PINEY ISLAND   CLEAR    N/A N/A N/A SE10      29.96F
WILMINGTON     MOSUNNY   71  54  54 SE10      29.95F


$$

NCZ011>013-027>030-043-044-078>080-089-090>093-098-222000-
COASTAL PLAIN

CITY           SKY/WX    TMP DP  RH WIND       PRES   REMARKS
AHOSKIE          N/A     67  52  58 CALM      29.97F
CLINTON        SUNNY     72  54  52 S6        29.94F
ELIZABETHTOWN  MOSUNNY   73  52  46 S6        29.93F
GOLDSBORO      CLOUDY    72  49  44 S8        29.93F
GREENVILLE     PTSUNNY   72  45  37 E5        29.97F
HAVELOCK       NOT AVBL
KENANSVILLE    NOT AVBL
KINSTON        PTSUNNY   73  48  40 S8        29.95F
NEW BERN       CLOUDY    74  50  42 S10       29.96F
RICHLANDS      MOSUNNY   72  55  55 SE13      29.95F
ROCKY MOUNT    CLOUDY    70  49  47 S5        29.96F
WASHINGTON     PTSUNNY   73  50  44 SE10      29.95F
WHITEVILLE     MOSUNNY   75  48  38 SE9G17    29.92F

$$

AMZ130-135-150-152-154-156-158-170-250-252-270-ANZ085-086-088-633-658-670-222000-
MARINE OBSERVATIONS

STATION/POSITION TIME  TEMP    WIND        PRES    WAVE   SWELL
                       AIR SEA DIR/SP/G            HT/PER HT/PER
                 (UTC) (F)     (DEG/KT/KT) (MB)    (FT/S) (FT/S)
CHESAPEAKE LIGHT NOT AVBL
64 E VA BEACH    1850   59 56  170/  4/  6 1015.5    4/10   3/10
DUCK             1836   58 48  130/  7/  8 1014.8
2 E DUCK         1900      51                N/A     3/ 9   2/11
OREGON INLET     1900   60 52   50/  5/  6 1015.3
13E OREGON INLT  NOT AVBL
HATTERAS CG      1900   68 59  150/  7/  9 1014.7
DIAMOND BUOY     1850   67 75  150/ 10/ 12 1015.1    3/10   3/10
CAPE LOOKOUT     1900   65     150/  6/  6 1014.4
BEAUFORT LAB     1900   66 54  180/  5/  6 1013.8
30 SE NEW RVR IN 1908   68     170/ 12/ 16 1014.5
30 SE NEW RVR IN 1913      69                N/A     4/ 9   2/11
27 SE WRIGHTSVLE 1908   68 64  140/ 10/ 14 1013.6
5 SE WRIGHTSVLE  1908   62 58   80/  4/  8 1014.2
225 S CAPE HAT   1850   65 70  100/ 14/ 16 1015.1    5/ 9   3/ 9
41 SE CHARLESTON 1850   68 70   80/ 17/ 21 1011.1    5/ 5

$$




USA.gov is the U.S. government's official web portal to all federal, state and local government web resources and services.